Temperature
16 17 17 18 17 16 16 16 15 16 16 17 17 17 18 18 19 19 19 19 19 19 19 19 19 19 18 18 18 17 17 17 17 16 16 16 16 16 16 16 16 15 15 15
17 17 17 17 18 17 17 17 16 17 17 17 18 18 18 18 18 19 19 19 19 19 19 19 19 19 19 18 18 18 17 17 17 16 16 16 16 16 16 16 16 15 15 15
15 16 17 17 18 17 17 17 17 17 18 17 17 17 18 18 19 19 20 19 19 19 19 19 19 19 19 19 18 18 17 17 17 16 16 16 16 16 16 16 16 15 15 15
14 16 17 17 17 18 18 18 17 18 17 18 18 19 19 19 20 20 20 20 20 20 20 19 19 19 19 18 18 18 18 17 17 17 17 16 16 16 16 16 15 15 15 15
13 15 16 17 18 17 18 18 18 17 17 18 18 18 18 20 20 20 20 20 20 20 20 19 19 19 19 18 18 18 18 17 17 17 17 16 16 16 16 15 15 15 15 15
13 15 16 17 18 18 18 18 18 17 17 17 17 16 17 20 20 20 20 20 20 20 19 19 19 19 18 18 18 18 18 17 17 17 17 16 16 16 15 15 15 15 15 15
13 14 15 16 17 18 17 17 19 18 18 18 17 18 20 20 20 20 20 20 20 20 19 19 19 18 18 18 18 18 18 17 17 17 16 16 16 16 15 15 15 15 15 15
13 14 15 17 16 17 17 19 19 19 19 19 19 19 19 20 20 20 20 20 20 19 19 19 18 18 18 18 18 18 17 17 17 17 16 16 16 16 15 15 15 15 15 14
14 15 16 17 18 19 19 19 19 19 19 19 19 19 19 19 19 19 19 19 19 19 19 18 18 18 18 18 17 17 17 17 17 16 16 16 16 15 15 15 15 14 14 14
13 14 16 17 18 19 19 19 20 20 19 19 19 19 19 19 19 19 19 19 19 19 18 18 18 18 18 17 17 17 17 16 16 16 16 15 15 15 15 14 14 14 14 14
13 14 16 18 18 19 19 19 19 19 19 19 19 19 19 19 19 19 19 19 18 18 18 18 17 17 17 17 17 17 16 16 16 16 15 15 15 15 14 14 14 14 13 13
14 15 15 17 18 18 18 19 19 19 19 19 19 19 19 19 18 18 18 18 18 18 17 17 17 17 17 16 16 16 16 16 16 15 15 15 14 14 14 13 13 13 13 12
16 17 17 17 18 18 18 18 18 19 19 19 19 19 18 18 18 18 18 18 17 17 17 17 17 17 16 16 16 16 16 16 15 15 15 14 14 14 13 13 13 12 12 12
16 16 16 17 17 17 18 18 18 18 18 18 18 18 18 18 17 17 17 17 17 17 16 16 16 16 16 16 16 15 15 15 15 15 14 14 13 13 13 13 12 12 12 12
15 16 16 16 17 17 17 17 17 17 17 17 17 17 17 17 17 17 17 16 16 16 16 16 16 16 15 15 15 15 15 15 14 14 14 13 13 13 12 12 12 12 11 11
15 15 15 16 16 16 16 16 17 17 17 17 17 17 17 17 16 16 16 16 16 16 16 15 15 15 15 15 14 14 14 14 14 13 13 13 12 12 12 12 11 11 11 10
14 14 14 15 15 15 16 16 16 16 16 16 16 16 16 16 16 15 15 15 15 15 15 15 15 14 14 14 14 14 14 13 13 13 13 12 12 12 11 11 11 10 10 10
14 14 15 15 15 15 15 15 16 16 16 16 15 15 15 15 15 15 15 15 14 14 14 14 14 14 14 14 14 13 13 13 13 12 12 11 11 11 10 10 10 10 9 9
13 14 14 14 14 15 15 15 15 15 15 15 15 15 15 15 14 14 14 14 14 14 14 14 13 13 13 13 13 13 13 12 12 12 11 11 11 10 10 10 9 9 9 8
13 13 13 13 14 14 14 14 14 14 14 14 14 14 14 14 14 14 14 14 13 13 13 13 13 13 13 13 12 12 12 12 12 11 11 10 10 10 9 9 9 8 8 8
12 13 13 13 13 13 13 13 14 14 13 13 13 13 13 13 13 13 13 13 13 13 12 12 12 12 12 12 12 12 11 11 11 11 10 10 9 9 9 8 8 8 7 7
12 12 12 12 12 12 12 12 13 13 13 13 13 13 13 12 12 12 12 12 12 12 12 12 12 12 12 11 11 11 11 10 10 10 9 9 9 8 8 8 7 7 7 6
11 11 11 11 11 11 12 12 12 12 12 12 12 12 12 12 12 12 12 12 11 11 11 11 11 11 11 11 10 10 10 10 9 9 9 8 8 8 7 7 7 6 6 6
10 10 10 11 11 11 11 11 11 11 11 11 11 11 11 11 11 11 11 11 11 11 11 10 10 10 10 10 10 9 9 9 8 8 8 7 7 7 7 6 6 5 5 5
10 10 10 10 10 10 10 10 11 11 11 11 11 11 11 11 11 11 10 10 10 10 10 9 9 9 9 9 9 8 8 8 7 7 7 7 6 6 6 5 5 5 4 4
9 9 9 9 9 9 10 10 10 10 10 10 10 10 10 10 10 10 10 9 9 9 9 8 8 8 8 8 8 7 7 7 7 6 6 6 6 5 5 4 4 4 4 3
8 8 9 9 9 9 9 9 9 9 9 9 9 9 9 9 9 9 9 8 8 8 8 8 7 7 7 7 7 7 6 6 6 6 5 5 5 4 4 4 4 3 3 3
Wind_Speed
4 4 3 4 5 7 7 8 7 7 7 9 7 5 4 3 3 4 4 5 6 7 7 7 7 7 7 7 7 7 7 7 7 6 5 4 4 4 4 4 4 4 3 3
2 2 3 4 5 7 7 6 7 5 7 7 4 2 3 3 4 5 6 7 7 7 7 8 8 8 8 8 7 7 8 7 6 5 5 5 5 4 4 4 4 4 3 3
2 3 2 5 6 7 6 6 8 8 8 4 2 5 6 6 6 7 7 7 8 8 9 9 9 9 9 8 7 8 8 7 6 6 6 6 5 5 5 4 4 4 3 3
1 1 4 7 4 5 6 6 7 6 5 5 5 5 5 6 7 7 7 7 7 7 7 7 7 7 7 7 8 8 8 7 7 7 6 6 6 6 5 4 4 4 4 4
3 3 5 7 3 3 4 5 5 5 4 3 2 2 2 4 6 8 8 7 7 7 6 6 7 7 7 7 8 8 8 8 8 8 7 7 7 6 5 4 4 3 3 4
3 3 5 6 4 2 2 4 4 5 5 4 5 2 5 4 4 5 4 4 4 4 5 5 5 7 8 7 8 8 8 8 7 8 8 8 7 6 4 4 4 4 2 2
5 5 7 6 4 2 4 6 4 6 6 6 6 6 4 2 3 3 3 3 4 5 5 5 5 7 8 7 7 7 6 6 6 7 7 7 6 5 5 5 4 3 2 1
5 4 7 3 4 5 7 4 3 4 5 6 5 2 1 2 2 3 3 3 5 5 4 3 5 7 7 6 6 5 6 6 6 6 5 5 6 5 5 5 5 3 2 1
8 7 5 3 6 5 3 3 3 3 3 5 4 2 2 2 2 3 3 4 4 5 4 3 4 6 7 5 4 6 6 6 5 5 4 5 6 6 4 4 4 3 3 2
4 7 6 5 4 3 3 4 3 4 4 5 5 4 3 2 2 2 2 3 4 5 5 4 3 4 4 4 5 7 6 5 5 6 5 4 4 5 5 4 4 3 3 2
4 5 4 4 3 3 2 1 1 2 4 5 6 4 4 3 3 3 3 3 4 5 5 4 4 3 3 4 6 7 6 5 5 5 6 5 4 3 4 3 5 5 4 4
6 5 4 5 5 2 1 1 2 3 3 3 5 6 5 4 3 4 4 4 5 4 4 3 4 4 3 4 6 7 6 5 4 4 4 5 5 4 4 4 4 5 5 5
5 4 4 5 5 3 2 2 2 4 4 4 3 5 6 4 3 4 5 5 5 5 4 4 5 4 3 4 6 7 6 5 4 4 5 4 4 5 3 3 5 4 4 4
4 1 2 3 3 3 1 2 3 4 4 4 4 4 5 5 4 4 4 5 5 5 5 5 5 3 2 4 6 6 6 6 5 4 4 4 4 4 4 4 3 1 2 3
5 4 4 3 1 1 1 3 5 4 4 4 4 5 6 6 5 3 3 5 6 6 5 5 5 3 3 5 6 6 5 4 4 4 4 4 4 4 4 4 3 2 2 3
4 2 1 1 2 2 2 3 4 3 4 4 4 4 5 5 5 4 4 5 7 6 5 5 4 2 3 5 6 5 4 7 7 5 4 4 4 4 4 4 4 3 2 1
2 3 2 2 2 3 3 4 5 5 5 5 5 5 6 6 5 4 3 4 5 5 4 4 3 3 4 5 6 5 4 5 8 6 4 4 4 4 4 4 4 3 2 2
5 6 5 6 5 4 3 3 3 4 5 5 6 6 6 6 6 5 3 4 5 5 3 3 4 4 4 4 5 5 5 5 5 5 4 4 4 4 4 4 4 3 2 2
2 3 2 3 4 5 4 4 4 3 4 5 6 6 5 5 5 5 4 5 6 4 1 2 6 6 4 5 6 5 6 6 5 5 5 6 5 4 4 4 3 3 3 2
1 2 2 2 2 3 4 4 4 4 4 5 6 6 5 4 5 5 5 4 3 3 3 4 5 4 4 5 7 5 6 6 6 5 5 5 4 4 3 3 3 3 3 2
2 2 3 3 3 2 3 3 4 5 4 5 6 6 5 4 4 5 5 3 1 2 4 6 5 4 4 5 7 5 5 5 5 5 5 4 4 4 3 3 3 3 2 2
1 2 3 3 4 3 2 2 3 4 5 5 5 6 6 5 4 3 2 2 3 5 4 3 3 6 7 7 5 5 5 5 5 4 4 4 4 4 3 3 3 2 2 2
1 2 2 2 3 3 2 2 3 4 5 5 6 6 5 4 3 4 2 1 2 6 4 3 6 9 10 6 5 5 5 5 5 4 4 4 4 3 3 3 3 2 2 2
2 2 2 2 3 4 3 1 2 3 4 4 4 5 5 4 2 1 2 4 5 6 4 6 9 11 10 5 5 5 5 5 4 4 4 4 4 3 3 3 3 2 2 2
2 2 3 3 3 2 2 2 3 3 4 3 3 3 3 3 3 3 3 4 7 7 5 7 10 10 7 5 5 5 5 4 5 5 4 4 4 3 3 3 2 2 2 1
2 2 2 2 2 2 3 3 3 3 3 3 3 2 3 3 4 4 4 5 6 8 6 4 5 7 5 5 5 5 5 5 5 4 4 4 4 4 3 3 2 2 1 0
2 2 2 2 2 2 2 3 3 3 3 4 4 3 3 4 5 5 6 5 5 5 5 4 5 5 5 5 5 5 5 5 4 4 4 4 3 3 3 2 1 1 0 1
Wind_Direction
232 238 213 219 212 195 195 194 197 229 234 254 247 231 221 202 186 169 182 187 187 189 191 186 184 184 182 182 180 174 169 177 190 186 174 171 173 176 170 165 172 167 160 165
282 274 238 257 244 209 213 207 215 235 256 247 228 187 195 200 192 194 200 201 198 194 192 192 192 190 185 186 181 170 174 185 186 172 167 171 175 169 160 161 158 153 169 172
258 307 360 270 239 211 210 206 191 213 230 219 203 194 201 207 207 209 208 204 201 200 200 199 197 191 190 188 174 171 178 182 179 174 176 180 174 164 168 172 164 162 178 176
176 80 243 251 256 214 219 227 212 218 217 204 210 209 204 202 205 215 211 208 205 200 201 199 193 187 182 171 169 174 178 182 182 176 178 173 168 175 180 168 167 176 186 191
149 200 270 289 264 190 199 253 213 207 218 207 157 84 295 217 204 213 211 207 206 199 192 186 186 179 166 168 171 175 183 187 186 179 175 172 178 185 181 168 173 179 182 184
152 185 233 249 272 260 150 270 232 194 201 185 136 148 252 236 210 218 213 200 187 175 163 172 181 166 161 168 173 188 193 190 182 176 177 181 186 183 172 167 177 170 172 182
178 214 256 253 275 102 161 245 249 199 192 176 184 204 219 203 193 188 177 168 153 146 157 176 164 153 160 167 189 196 180 170 170 176 180 180 174 167 160 156 148 151 159 176
164 202 252 246 154 182 225 259 224 198 183 182 198 191 155 152 150 136 124 129 137 140 149 147 148 152 159 182 194 168 155 156 162 165 169 164 157 155 150 148 146 152 147 143
189 213 244 234 220 243 235 230 223 197 188 171 164 155 134 121 113 119 126 137 142 144 138 129 142 152 164 188 162 142 140 146 150 145 146 147 150 149 144 148 151 159 156 180
235 260 265 265 255 273 254 229 217 181 162 153 149 145 127 122 112 110 113 129 133 132 132 139 146 150 166 157 140 135 139 144 142 139 134 130 138 147 150 158 163 167 166 181
246 276 304 297 282 290 306 286 161 138 146 154 146 141 141 141 133 130 121 120 125 132 142 149 140 136 129 128 132 133 136 137 138 139 141 134 127 136 152 164 171 169 182 179
224 229 212 259 282 292 274 244 180 147 124 130 152 154 144 140 138 132 130 122 121 122 129 130 126 125 122 129 137 138 136 140 143 141 140 138 135 107 71 94 112 130 139 145
231 236 223 254 271 261 231 204 159 151 150 141 142 145 140 132 129 123 127 128 137 139 136 128 121 117 123 133 135 138 145 146 141 141 143 142 145 146 128 70 74 93 117 132
248 249 264 251 251 265 215 150 119 106 107 120 126 124 121 115 116 119 137 144 138 128 122 119 112 106 119 131 130 132 133 136 140 145 146 146 152 151 146 138 124 73 55 87
274 246 234 250 246 159 125 123 111 107 106 102 114 126 129 130 137 134 129 127 119 113 111 110 106 100 109 126 127 128 130 133 134 132 134 138 140 137 131 130 129 117 81 59
277 271 189 175 180 163 147 152 149 155 144 136 134 137 136 130 123 109 110 128 128 131 135 125 120 125 118 123 124 121 123 128 130 129 127 124 125 128 128 127 124 120 118 108
209 244 233 220 211 200 198 191 180 174 165 161 160 145 130 119 112 110 107 124 129 129 132 132 133 123 117 124 126 126 123 128 127 122 125 129 128 130 132 131 131 127 117 106
222 225 220 208 195 189 188 178 168 165 169 168 149 138 142 144 147 148 135 120 111 98 100 127 125 119 116 122 126 124 123 122 124 127 126 126 128 129 129 130 129 123 98 89
220 214 218 205 187 169 166 170 165 156 150 143 143 148 153 151 146 140 127 123 129 137 169 137 126 120 119 123 123 122 124 122 119 116 119 121 120 120 122 124 123 121 120 112
165 139 146 149 137 148 156 158 147 136 137 139 135 130 130 134 134 131 124 132 170 179 160 137 129 124 125 127 121 120 122 124 125 123 119 119 121 118 117 119 118 118 120 121
158 137 129 128 118 116 134 144 141 143 143 143 144 149 146 135 132 131 130 142 201 127 132 134 133 135 133 131 123 121 122 123 125 127 126 125 123 120 118 117 114 114 116 111
124 118 119 124 120 113 109 122 133 138 139 141 140 136 131 128 126 121 132 166 162 135 131 136 135 134 134 125 121 122 121 120 121 121 122 125 128 128 125 120 115 108 106 103
123 124 125 131 135 133 114 111 125 137 144 149 149 147 148 151 149 143 151 151 134 133 129 132 132 129 126 119 118 120 120 121 122 123 124 125 127 127 126 120 114 111 112 108
106 106 115 117 112 112 114 122 123 125 131 136 143 146 144 138 120 107 127 129 126 123 119 125 125 124 120 115 116 116 117 119 121 120 118 116 115 116 117 116 114 113 115 108
112 110 110 116 124 143 153 136 114 112 116 119 115 119 132 143 143 133 118 120 121 114 106 114 118 118 114 111 114 115 117 119 119 118 117 118 118 115 114 117 123 125 122 114
114 125 134 143 156 162 152 142 141 146 139 129 116 107 107 107 114 117 115 111 111 111 106 103 109 111 109 111 113 113 112 113 110 110 117 120 119 118 119 120 116 117 122 122
73 82 87 74 72 119 133 141 146 152 153 148 139 131 125 120 118 118 115 112 110 107 105 102 106 110 110 110 110 109 107 107 110 113 114 114 116 117 119 113 108 90 23 324
Height
1527 1524 1524 1524 1525 1528 1530 1532 1538 1532 1528 1519 1516 1515 1515 1516 1518 1519 1521 1523 1525 1527 1529 1532 1535 1538 1541 1544 1547 1550 1552 1554 1556 1558 1559 1561 1563 1565 1566 1567 1568 1569 1570 1570
1526 1522 1523 1524 1521 1522 1524 1525 1526 1524 1522 1512 1512 1513 1514 1515 1516 1518 1519 1521 1523 1525 1528 1530 1533 1535 1539 1542 1545 1547 1549 1551 1553 1555 1557 1559 1561 1563 1564 1566 1567 1568 1568 1569
1533 1525 1523 1527 1518 1518 1518 1516 1518 1521 1515 1510 1511 1511 1512 1513 1514 1515 1517 1519 1521 1523 1525 1528 1530 1533 1536 1539 1542 1544 1547 1549 1551 1553 1555 1557 1559 1560 1562 1563 1565 1566 1567 1567
1534 1530 1535 1521 1509 1509 1510 1509 1509 1508 1507 1508 1508 1508 1510 1511 1512 1513 1515 1517 1519 1521 1523 1525 1528 1531 1534 1536 1539 1542 1544 1546 1549 1551 1553 1555 1556 1558 1560 1561 1563 1564 1565 1566
1536 1534 1528 1516 1508 1508 1510 1509 1505 1506 1506 1507 1507 1508 1509 1509 1511 1512 1513 1515 1517 1519 1521 1523 1526 1528 1531 1534 1536 1539 1541 1543 1546 1548 1550 1552 1554 1555 1557 1559 1560 1561 1562 1563
1534 1533 1531 1516 1505 1503 1507 1510 1501 1502 1503 1505 1506 1512 1509 1507 1508 1510 1511 1513 1515 1517 1519 1521 1523 1526 1528 1531 1533 1536 1538 1541 1543 1545 1547 1549 1551 1553 1554 1556 1558 1559 1560 1561
1530 1529 1522 1507 1503 1503 1516 1510 1499 1499 1500 1502 1504 1505 1505 1505 1507 1508 1510 1511 1513 1515 1517 1519 1521 1524 1526 1528 1531 1533 1536 1538 1541 1543 1545 1547 1548 1550 1551 1553 1555 1556 1557 1558
1527 1528 1521 1501 1502 1505 1503 1497 1497 1497 1498 1500 1501 1502 1503 1504 1505 1506 1508 1510 1512 1514 1515 1518 1520 1522 1524 1526 1529 1531 1534 1536 1538 1540 1542 1544 1545 1547 1548 1550 1551 1553 1554 1555
1512 1511 1501 1498 1498 1497 1497 1496 1496 1496 1497 1498 1499 1501 1502 1503 1504 1505 1507 1509 1511 1513 1515 1517 1519 1521 1522 1525 1527 1529 1531 1533 1535 1538 1539 1541 1542 1544 1545 1547 1548 1549 1551 1552
1506 1500 1497 1496 1495 1495 1494 1494 1494 1495 1496 1497 1498 1500 1502 1503 1504 1505 1507 1508 1510 1512 1514 1515 1517 1519 1522 1524 1526 1527 1529 1531 1533 1535 1537 1539 1540 1542 1543 1544 1546 1547 1548 1549
1502 1497 1494 1493 1493 1493 1493 1493 1493 1494 1495 1497 1498 1499 1501 1502 1504 1505 1506 1508 1510 1511 1513 1515 1516 1519 1521 1522 1524 1526 1528 1530 1532 1533 1535 1536 1538 1540 1541 1542 1544 1545 1546 1547
1498 1494 1494 1492 1492 1492 1492 1492 1493 1493 1494 1496 1497 1499 1500 1502 1503 1505 1506 1508 1509 1511 1512 1514 1516 1518 1519 1521 1523 1525 1526 1528 1530 1531 1533 1534 1536 1538 1539 1540 1542 1543 1544 1544
1491 1490 1490 1490 1490 1491 1491 1491 1492 1493 1494 1495 1497 1498 1500 1501 1503 1504 1506 1507 1509 1510 1512 1514 1515 1517 1518 1520 1522 1523 1525 1526 1528 1530 1531 1532 1534 1536 1537 1538 1539 1540 1541 1542
1488 1488 1488 1488 1488 1489 1489 1490 1491 1492 1494 1495 1496 1498 1499 1500 1502 1503 1505 1507 1508 1510 1512 1513 1514 1516 1517 1519 1520 1522 1523 1525 1526 1527 1529 1530 1532 1533 1534 1536 1537 1538 1539 1540
1484 1485 1486 1485 1486 1487 1488 1489 1490 1491 1493 1494 1495 1497 1498 1499 1501 1502 1505 1506 1508 1509 1511 1512 1513 1515 1516 1518 1519 1520 1521 1523 1524 1525 1527 1528 1530 1531 1532 1534 1535 1536 1537 1538
1481 1482 1483 1483 1484 1485 1486 1487 1488 1489 1491 1493 1494 1496 1498 1499 1501 1502 1504 1506 1507 1508 1509 1511 1512 1514 1515 1516 1517 1518 1520 1521 1522 1524 1525 1526 1527 1528 1530 1531 1533 1534 1534 1535
1479 1479 1479 1480 1481 1483 1484 1485 1486 1487 1489 1491 1493 1495 1497 1498 1500 1501 1503 1504 1506 1507 1509 1510 1511 1513 1514 1515 1516 1517 1518 1519 1521 1522 1523 1524 1525 1527 1528 1529 1530 1531 1532 1533
1476 1476 1477 1478 1478 1480 1481 1483 1484 1486 1488 1489 1491 1493 1495 1497 1498 1500 1502 1503 1504 1506 1508 1509 1511 1512 1513 1514 1515 1516 1517 1518 1519 1520 1521 1523 1524 1525 1527 1528 1528 1530 1531 1531
1472 1473 1475 1476 1477 1478 1479 1480 1482 1484 1486 1488 1490 1491 1493 1495 1497 1499 1500 1502 1503 1504 1506 1508 1509 1510 1512 1513 1514 1515 1516 1517 1518 1519 1520 1522 1523 1524 1525 1526 1527 1528 1529 1529
1470 1471 1473 1474 1475 1476 1477 1479 1481 1483 1485 1486 1488 1490 1491 1493 1495 1497 1498 1500 1501 1503 1505 1507 1508 1509 1510 1511 1512 1513 1514 1515 1516 1518 1519 1520 1521 1522 1523 1524 1525 1526 1526 1527
1468 1469 1470 1472 1473 1474 1476 1477 1479 1481 1483 1485 1487 1488 1490 1492 1494 1495 1496 1498 1500 1502 1503 1505 1506 1507 1508 1509 1510 1511 1512 1513 1514 1516 1517 1518 1519 1520 1521 1522 1523 1523 1524 1524
1465 1467 1468 1469 1470 1472 1474 1476 1478 1479 1481 1483 1485 1487 1489 1490 1492 1494 1495 1497 1498 1500 1501 1503 1504 1505 1506 1507 1508 1509 1510 1511 1513 1514 1515 1516 1517 1518 1519 1519 1520 1521 1521 1521
1464 1465 1466 1468 1469 1471 1473 1475 1476 1478 1480 1481 1483 1485 1487 1489 1490 1492 1493 1495 1496 1498 1499 1500 1502 1503 1504 1505 1506 1507 1508 1509 1511 1512 1513 1514 1515 1516 1516 1517 1517 1518 1518 1518
1463 1464 1465 1467 1468 1469 1471 1473 1475 1476 1478 1480 1481 1483 1485 1487 1489 1491 1492 1494 1495 1496 1497 1499 1500 1501 1502 1503 1504 1505 1506 1508 1509 1510 1511 1512 1513 1513 1514 1514 1514 1515 1515 1515
1462 1463 1464 1465 1466 1468 1469 1471 1473 1475 1476 1478 1480 1482 1484 1485 1487 1488 1490 1492 1493 1494 1496 1497 1498 1499 1500 1501 1503 1504 1505 1506 1507 1508 1509 1510 1510 1511 1511 1511 1512 1512 1512 1511
1461 1462 1463 1464 1465 1466 1468 1469 1471 1472 1474 1476 1478 1480 1482 1484 1485 1487 1488 1490 1492 1493 1494 1495 1496 1498 1499 1500 1501 1502 1504 1505 1505 1506 1507 1507 1508 1508 1509 1509 1509 1509 1509 1508
1461 1461 1462 1463 1465 1466 1467 1468 1469 1471 1473 1475 1476 1478 1480 1482 1483 1485 1487 1489 1490 1491 1493 1494 1495 1496 1497 1498 1500 1501 1502 1503 1504 1504 1505 1505 1506 1506 1506 1506 1506 1506 1506 1505